Date String (YYYY-MM-DD hh:mm:ss) UTC,Instrument flags,Ambient pressure (hPa),Sample flow (lpm),Bypass flow (lpm),Sample temperature (°C),Ambient temperature (°C),ASC tube jacket temperature (°C),LED temperature (°C),Box temperature (°C),Sample RH (%),Span deviation,Mass concentration (μg/m³),Mass concentration (μg/m³),Mass concentration (μg/m³)
DateTimeUTC,F1_M11,P_M11,Q1_M11,Q2_M11,T1_M11,T2_M11,T3_M11,T4_M11,T5_M11,U1_M11,ZSPAN_M11,X0_M11,X2_M11,X1_M11
2022-07-06 09:00:00,,0827.9,5.00,0.00,31.6,28.3,00.0,39.0,32.1,34.1,0000.0,0017.44,0005.11,0003.93
2022-07-06 09:01:00,,0828.0,5.00,0.00,31.6,28.5,00.0,39.1,32.1,34.2,0000.0,0017.05,0005.20,0003.99
2022-07-06 09:02:00,,0828.0,5.00,0.00,31.6,28.6,00.0,39.2,32.1,34.4,0000.0,0016.80,0005.33,0004.07
2022-07-06 09:03:00,,0828.0,4.99,0.00,31.6,28.7,00.0,39.3,32.2,34.6,0000.0,0017.81,0005.48,0004.14
2022-07-06 09:04:00,,0828.0,5.01,0.00,31.6,28.7,00.0,39.4,32.2,34.7,0000.0,0018.92,0005.54,0004.19
2022-07-06 09:05:00,,0828.0,4.99,0.00,31.6,28.8,00.0,39.5,32.3,34.9,0000.0,0019.34,0005.67,0004.26
2022-07-06 09:06:00,,0828.0,5.02,0.00,31.6,28.9,00.0,39.5,32.3,35.1,0000.0,0018.93,0005.74,0004.32
2022-07-06 09:07:00,,0828.0,4.99,0.00,31.8,28.9,00.0,39.6,32.5,34.7,-000.1,0018.82,0005.74,0004.34
2022-07-06 09:08:00,,0828.0,4.99,0.00,31.9,29.0,00.0,39.6,32.5,34.6,-000.8,0018.39,0005.78,0004.38
2022-07-06 09:09:00,,0828.0,5.00,0.00,31.9,29.1,00.0,39.7,32.5,34.7,-000.3,0017.85,0005.87,0004.44
2022-07-06 09:10:00,,0828.1,5.01,0.00,31.9,29.1,00.0,39.7,32.5,34.7,-000.3,0017.67,0006.03,0004.50
2022-07-06 09:11:00,,0828.1,5.00,0.00,31.9,29.2,00.0,39.8,32.6,34.8,-000.2,0017.88,0006.16,0004.56
2022-07-06 09:12:00,,0828.1,5.00,0.00,31.9,29.2,00.0,39.9,32.6,34.9,-000.2,0018.56,0006.30,0004.61
2022-07-06 09:13:00,,0828.3,5.02,0.00,31.9,29.2,00.0,39.9,32.6,34.9,-000.2,0018.46,0006.39,0004.66
2022-07-06 09:14:00,,0828.1,4.99,0.00,31.9,29.3,00.0,39.9,32.6,35.1,-000.1,0018.53,0006.39,0004.69
2022-07-06 09:15:00,,0828.2,5.01,0.00,32.0,29.3,00.0,40.0,32.8,34.9,-000.6,0017.80,0006.43,0004.74
2022-07-06 09:16:00,,0828.2,5.00,0.00,32.2,29.4,00.0,40.0,32.9,34.5,-000.9,0016.52,0006.45,0004.76
2022-07-06 09:17:00,,0828.2,5.00,0.00,32.3,29.3,00.0,40.0,32.8,34.3,-000.6,0016.45,0006.51,0004.78
2022-07-06 09:18:00,,0828.2,5.01,0.00,32.3,28.4,00.0,40.0,32.7,34.2,-000.2,0016.74,0006.59,0004.82
2022-07-06 09:19:00,,0828.2,4.99,0.00,32.2,27.6,00.0,40.0,32.5,34.4,-000.8,0017.32,0006.67,0004.87
2022-07-06 09:20:00,,0828.1,4.99,0.00,32.1,27.2,00.0,40.0,32.4,34.6,-000.8,0017.40,0006.73,0004.90
2022-07-06 09:21:00,,0828.3,5.01,0.00,31.9,27.2,00.0,40.0,32.2,35.0,-001.2,0017.42,0006.74,0004.92
2022-07-06 09:22:00,,0828.1,4.99,0.00,31.9,27.3,00.0,40.0,32.2,35.2,-001.3,0017.44,0006.76,0004.94
2022-07-06 09:23:00,,0828.1,5.01,0.00,32.1,27.5,00.0,40.0,32.4,34.9,-001.1,0017.57,0006.70,0004.94
2022-07-06 09:24:00,,0828.2,4.99,0.00,32.2,27.7,00.0,40.0,32.4,34.6,-001.1,0017.37,0006.60,0004.92
2022-07-06 09:25:00,,0828.2,5.00,0.00,32.3,27.9,00.0,40.0,32.4,34.5,-001.1,0016.92,0006.62,0004.92
2022-07-06 09:26:00,,0828.2,5.00,0.00,32.3,28.1,00.0,40.0,32.4,34.5,-000.9,0016.22,0006.60,0004.90
2022-07-06 09:27:00,,0828.3,5.00,0.00,32.3,28.2,00.0,40.0,32.4,34.6,-000.8,0016.48,0006.59,0004.92
2022-07-06 09:28:00,,0828.3,5.00,0.00,32.2,28.3,00.0,40.1,32.4,34.7,-000.4,0015.64,0006.55,0004.92
2022-07-06 09:29:00,,0828.3,5.00,0.00,32.2,28.5,00.0,40.1,32.4,34.8,-000.7,0015.38,0006.51,0004.93
2022-07-06 09:30:00,,0828.3,4.99,0.00,32.1,28.6,00.0,40.1,32.4,34.9,-000.0,0014.99,0006.49,0004.93
2022-07-06 09:31:00,,0828.2,5.01,0.00,32.1,28.7,00.0,40.2,32.5,35.1,-000.2,0014.55,0006.46,0004.94
2022-07-06 09:32:00,,0828.2,5.00,0.00,32.3,28.8,00.0,40.2,32.6,34.9,-000.2,0014.18,0006.37,0004.95
2022-07-06 09:33:00,,0828.4,5.00,0.00,32.4,28.9,00.0,40.2,32.7,34.6,0000.2,0013.83,0006.33,0004.94
2022-07-06 09:34:00,,0828.3,4.99,0.00,32.4,28.9,00.0,40.2,32.7,34.4,0000.5,0013.57,0006.34,0004.97
2022-07-06 09:35:00,,0828.2,5.00,0.00,32.5,29.0,00.0,40.3,32.7,34.5,0000.9,0013.67,0006.37,0005.00
2022-07-06 09:36:00,,0828.3,5.00,0.00,32.4,29.1,00.0,40.3,32.7,34.6,0001.0,0013.11,0006.38,0005.05
2022-07-06 09:37:00,,0828.2,5.01,0.00,32.4,29.1,00.0,40.3,32.7,34.7,0001.2,0013.07,0006.41,0005.11
2022-07-06 09:38:00,,0828.3,5.00,0.00,32.4,29.1,00.0,40.4,32.7,34.8,0001.2,0012.64,0006.41,0005.16
2022-07-06 09:39:00,,0828.3,5.01,0.00,32.3,29.2,00.0,40.4,32.8,34.9,0000.6,0012.61,0006.45,0005.21
2022-07-06 09:40:00,,0828.3,4.99,0.00,32.3,29.2,00.0,40.4,32.8,35.1,0000.4,0012.55,0006.50,0005.23
2022-07-06 09:41:00,,0828.3,5.01,0.00,32.4,29.3,00.0,40.4,32.9,34.9,0000.2,0012.35,0006.47,0005.25
2022-07-06 09:42:00,,0828.3,4.99,0.00,32.6,29.3,00.0,40.5,33.0,34.6,0000.4,0013.19,0006.43,0005.26
2022-07-06 09:43:00,,0828.3,5.00,0.00,32.6,29.4,00.0,40.5,33.0,34.5,0000.0,0013.69,0006.51,0005.29
2022-07-06 09:44:00,,0828.3,5.00,0.00,32.6,29.4,00.0,40.5,33.0,34.5,-000.7,0013.73,0006.52,0005.33
2022-07-06 09:45:00,,0828.3,4.99,0.00,32.6,29.4,00.0,40.5,33.0,34.6,-001.2,0013.60,0006.57,0005.37
2022-07-06 09:46:00,,0828.3,5.01,0.00,32.6,29.5,00.0,40.6,33.0,34.7,-001.4,0013.67,0006.63,0005.41
2022-07-06 09:47:00,,0828.3,4.99,0.00,32.5,29.5,00.0,40.6,33.0,34.8,-001.6,0013.74,0006.67,0005.43
2022-07-06 09:48:00,,0828.3,5.01,0.00,32.5,28.9,00.0,40.6,32.9,34.9,-001.5,0014.07,0006.65,0005.44
2022-07-06 09:49:00,,0828.3,4.99,0.00,32.5,28.3,00.0,40.5,32.8,34.9,-001.3,0014.72,0006.70,0005.46
2022-07-06 09:50:00,,0828.2,5.01,0.00,32.4,28.0,00.0,40.5,32.7,35.2,-001.1,0015.01,0006.71,0005.48
2022-07-06 09:51:00,,0828.2,4.99,0.00,32.4,27.9,00.0,40.5,32.7,35.2,-000.6,0015.20,0006.73,0005.49
2022-07-06 09:52:00,,0828.3,5.00,0.00,32.5,28.0,00.0,40.5,32.8,34.8,-000.3,0015.28,0006.74,0005.49
2022-07-06 09:53:00,,0828.3,5.00,0.00,32.7,28.1,00.0,40.4,32.8,34.5,-000.2,0014.42,0006.77,0005.49
2022-07-06 09:54:00,,0828.3,5.01,0.00,32.7,28.3,00.0,40.4,32.8,34.4,-000.1,0013.93,0006.74,0005.49
2022-07-06 09:55:00,,0828.3,4.99,0.00,32.7,28.4,00.0,40.5,32.7,34.4,0000.2,0014.07,0006.76,0005.49
2022-07-06 09:56:00,,0828.3,4.99,0.00,32.7,28.5,00.0,40.5,32.7,34.5,0000.5,0014.04,0006.70,0005.48
2022-07-06 09:57:00,,0828.3,5.01,0.00,32.6,28.7,00.0,40.5,32.7,34.6,0000.6,0013.67,0006.66,0005.48
2022-07-06 09:58:00,,0828.3,5.00,0.00,32.5,28.8,00.0,40.5,32.7,34.8,0000.7,0013.63,0006.66,0005.48
2022-07-06 09:59:00,,0828.3,4.99,0.00,32.5,28.9,00.0,40.6,32.7,34.9,0000.5,0013.15,0006.67,0005.47
